Погода в Ватерлоо

Бельгия     50°42′53″N   4°23′56″E
темп.,
°C
ветер,
м/с
пор.,
м/с
влажн.,
%
обл.,
%
осадки,
мм/ч
давл.,
гПа
погр.,
м
9 мая, вс
вс923:00+12ю41291100 0.0 1008226
02:00+11ю51292100 0.0 1007208
05:00+11ююв4129179 0.0 1005194
08:00+14ююв61489100 0.4 1003313
11:00+19ю7137585 0.9 1002714
14:00+22ююз8126060 1.1 10011169
17:00+23ююз7116295 0.0 10001555
20:00+21ю61369100 0.0 999659
10 мая, пн
пн1023:00+15юз389455 3.2 1001299
02:00+14ю4109478 3.3 1001437
05:00+13ююв3994100 0.0 1000200
08:00+13юз81391100 0.8 1002955
11:00+12юз61086100 0.6 1005811
14:00+15ююз71067100 0.6 10071252
17:00+16ююз7966100 0.6 10081446
20:00+14ююз3777100 0.9 1008293
11 мая, вт
вт1123:00+12ю3585100 0.0 1009114
02:00+11ю3586100 0.0 1010116
05:00+10ююз3593100 0.0 1010101
08:00+11ю3488100 0.0 1009192
11:00+15юв2368100 0.1 1009737
14:00+17вюв3364100 1.1 10081153
17:00+16вюв4467100 1.6 1008993
20:00+13ю3587100 3.1 1008123
12 мая, ср
ср1223:00+10зсз4898100 1.0 1010301
02:00+9з4996100 1.6 1010467
05:00+9зюз4994100 0.1 1011403
08:00+9з3791100 0.1 1011367
11:00+13з566741 0.0 10111104
14:00+14з566462 0.7 10111297
17:00+16з554782 0.1 10102010
20:00+13сз236886 0.1 101172
13 мая, чт
чт1323:00+9ссв118297 0.0 101212
02:00+7вюв128999 0.0 101211
05:00+7ю11885 0.0 101212
08:00+10юз22785 0.0 1011139
11:00+15ю11615 0.0 1011884
14:00+17ю225225 0.7 10101678
17:00+17юз12545 1.1 10091389
20:00+14ссз237967 3.3 100962